User: anonymous   Login
Location: Unspecified
(0.0000°N, 0.0000°E)
Time: 03:23:07
(UTC+02:00)
Language:

Cosmos 1515 Rocket - Orbit

View from above orbital plane
View from above orbital plane
View from above satellite
View from above satellite

Ground track
Ground track

The orbit data is extracted from the following two-line orbital elements,

1 14552U 83122B   14296.70986435  .00000882  00000-0  10551-3 0    47
2 14552 082.5243 262.1129 0019096 108.3978 316.9550 14.82927805665773
Epoch (UTC): 23 October 2014 17:02:12
Eccentricity: 0.0019096
inclination: 82.5243°
perigee height: 607 km
apogee height: 633 km
right ascension of ascending node: 262.1129°
argument of perigee: 108.3978°
revolutions per day: 14.82927805
mean anomaly at epoch: 316.9550°
orbit number at epoch: 66577

The dashed part of the orbit path shows where the satellite is in the earth's shadow,  

DLR